Flag for U.S.A. Weather past 2 weeks in Yonkers, New York, U.S.A.

43 °F

Passing clouds.

Feels Like: 39 °F
Forecast: 38 / 48 °F
Wind: 6 mph from Northeast

Location: Teterboro Airport

Current Time: Nov 29, 2015 at 12:27:04 AM

Latest Report: Nov 28, 2015 at 11:51 PM

Visibility: 10 mi

Pressure: 30.21 "Hg

Humidity: 71%

Dew point: 34 °F

Location of YonkersLocation

Historic Weather in Yonkers — Graph


Yonkers temperature yesterday

Maximum temperature yesterday: 62 °F (at 10:51 AM)
Minimum temperature yesterday: 43 °F (at 10:51 PM)
Average temperature yesterday: 52 °F

Past Weeks' High & Low Weather Summary

High69 °F (Nov 16, 1:51 PM)93% (Nov 27, 12:51 AM)30.82 "Hg (Nov 27, 12:51 AM)
Low26 °F (Nov 24, 3:51 AM)22% (Nov 20, 1:51 PM)29.80 "Hg (Nov 13, 10:51 PM)
Average48 °F57%30.27 "Hg
* Reported Nov 13 10:51 PM — Nov 28 10:51 PM, Yonkers, Weather by CustomWeather, © 2015

Note: Actual official high and low records may vary slightly from our data, if they occured in-between our weather recording intervals... More about our weather records


Yonkers weather history for previous 24 hours

Time TempWeatherWind HumidityBarometerVisibility
10:51 PM
Sat, Nov 28
43 °FOvercast.6 mph74%30.21 "Hg10 mi
9:51 PM44 °FPartly cloudy.6 mph71%30.22 "Hg10 mi
8:51 PM45 °FOvercast.6 mph74%30.20 "Hg10 mi
7:51 PM45 °FOvercast.5 mph76%30.20 "Hg10 mi
6:51 PM46 °FLow clouds.7 mph79%30.18 "Hg10 mi
5:51 PM47 °FLight rain. Low clouds.7 mph83%30.16 "Hg10 mi
4:51 PM49 °FLight rain. Overcast.7 mph80%30.16 "Hg10 mi
3:51 PM50 °FLight rain. Overcast.9 mph80%30.15 "Hg10 mi
2:51 PM53 °FLight rain. Overcast.9 mph80%30.13 "Hg10 mi
1:51 PM57 °FLight rain. Overcast.7 mph74%30.11 "Hg10 mi
12:51 PM61 °FOvercast.5 mph60%30.10 "Hg10 mi
11:51 AM62 °FOvercast.7 mph58%30.11 "Hg10 mi
10:51 AM62 °FMostly cloudy.5 mph58%30.14 "Hg10 mi
9:51 AM61 °FSunny.7 mph58%30.16 "Hg10 mi
8:51 AM54 °FSunny.No wind74%30.16 "Hg10 mi
7:51 AM51 °FSunny.No wind77%30.16 "Hg10 mi
6:51 AM52 °FPassing clouds.No wind75%30.16 "Hg10 mi
5:51 AM50 °FPassing clouds.No wind77%30.15 "Hg10 mi
4:51 AM51 °FPassing clouds.No wind77%30.15 "Hg10 mi
3:51 AM51 °FOvercast.5 mph77%30.15 "Hg10 mi
2:51 AM54 °FClear.No wind69%30.16 "Hg10 mi
1:51 AM52 °FOvercast.3 mph75%30.18 "Hg10 mi
12:51 AM52 °FPassing clouds.No wind72%30.20 "Hg10 mi
Weather by CustomWeather, © 2015

See weather overviewHow to use our weather pages